Location: La Fredeussais
(48.1780°N, 1.3980°W)
Time: 08:48:17
(UTC+00:00)

Terra - Pass Details

Date: 09 May 2021
Orbit: 701 x 703 km, 98.2° (Epoch: 13 June)

Event Time Altitude Azimuth Distance (km) Brightness Sun altitude
Exits shadow 21:45:17 33° 152° (SSE) 1,186 2.4 -17.5°
Maximum altitude 21:47:26 74° 74° (ENE) 736 1.8 -17.7°
Drops below altitude 10° 21:52:13 10° 349° (N) 2,183 5.4 -18.1°
Sets 21:54:29 0° 348° (NNW) 3,105 6.5 -18.3°
